Location: Pompeys Pillar
(45.9913°N, 107.9528°W)
Time: 05:39:52
(UTC+00:00)

Tiros 1 - Pass Details

Date: 31 May 2022
Orbit: 629 x 663 km, 48.4° (Epoch: 04 July)

Event Time Altitude Azimuth Distance (km) Brightness Sun altitude
Rises 11:08:46 0° 289° (WNW) 2,928 10.2 -3.2°
Reaches altitude 10° 11:11:06 10° 286° (WNW) 2,022 9.3 -2.8°
Maximum altitude 11:15:40 57° 208° (SSW) 754 7.3 -2.2°
Drops below altitude 10° 11:20:16 10° 130° (SE) 2,035 9.9 -1.5°
Sets 11:22:38 0° 126° (SE) 2,949 10.8 -1.2°
